Saint Petersburg, FL

5:19 PM EST on December 07, 2016 (GMT -0500)
Whitted

Weather History for KSPG - October, 2010

Change the Weather History Date:

Friday, October 15, 2010

  Actual Average Record
Temperature  
Mean Temperature 75 °F -  
Max Temperature 81 °F 84 °F 90 °F (1962)
Min Temperature 70 °F 70 °F 58 °F (1977)
Cooling Degree Days 10    
Growing Degree Days 25 (Base 50)    
Moisture  
Dew Point 53 °F    
Average Humidity 50    
Maximum Humidity 76    
Minimum Humidity 28    
Precipitation  
Precipitation 0.00 in - - ()
Sea Level Pressure  
Sea Level Pressure 29.98 in    
Wind  
Wind Speed 9 mph (North)    
Max Wind Speed 15 mph    
Max Gust Speed 23 mph    
Visibility 10 miles    
Events      
Averages and records for this station are not official NWS values.
T = Trace of Precipitation, MM = Missing Value Source: NWS Daily Summary

Daily Weather History Graph

Daily Weather History Graph

Search for Another Location

Airport or City:

Trip Planner

Search our weather history database for the weather conditions in past years. The results will help you decide how hot, cold, wet, or windy it might be!

Date:

Astronomy

Oct. 15, 2010 Rise Set
Actual Time 7:30 AM EDT 7:01 PM EDT
Civil Twilight 7:07 AM EDT 7:24 PM EDT
Nautical Twilight 6:39 AM EDT 7:52 PM EDT
Astronomical Twilight 6:12 AM EDT 8:19 PM EDT
Moon 2:48 PM EDT (10/15) 1:00 AM EDT (10/15)
Length of Visible Light 12h 17m
Length of Day
11h 30m
First Quarter, 57% of the Moon is Illuminated
Oct 15
First Quarter
Oct 22
Full
Oct 30
Last Quarter
Nov 6
New
Nov 13
First Quarter

Hourly Weather History & Observations

Time (EDT) Temp. Dew Point Humidity Pressure Visibility Wind Dir Wind Speed Gust Speed Precip Events Conditions
12:53 AM 75.0 °F 64.0 °F 69% 29.95 in 10.0 mi North 8.1 mph - N/A   Clear
1:53 AM 73.9 °F 64.9 °F 73% 29.95 in 10.0 mi North 8.1 mph - N/A   Clear
2:53 AM 73.9 °F 66.0 °F 76% 29.94 in 10.0 mi North 6.9 mph - N/A   Clear
3:53 AM 73.9 °F 66.0 °F 76% 29.94 in 10.0 mi North 6.9 mph - N/A   Clear
4:53 AM 73.0 °F 61.0 °F 66% 29.94 in 10.0 mi NNE 10.4 mph - N/A   Clear
5:53 AM 72.0 °F 57.9 °F 61% 29.96 in 10.0 mi NNE 8.1 mph - N/A   Clear
6:53 AM 71.1 °F 57.9 °F 63% 29.98 in 10.0 mi NNE 8.1 mph - N/A   Clear
7:53 AM 70.0 °F 53.1 °F 55% 29.99 in 10.0 mi NNE 8.1 mph - N/A   Clear
8:53 AM 72.0 °F 53.1 °F 51% 30.01 in 10.0 mi NE 13.8 mph - N/A   Clear
9:53 AM 73.0 °F 51.1 °F 46% 30.03 in 10.0 mi NE 13.8 mph - N/A   Clear
10:53 AM 75.0 °F 50.0 °F 41% 30.03 in 10.0 mi NE 10.4 mph - N/A   Clear
11:53 AM 77.0 °F 50.0 °F 39% 30.02 in 10.0 mi NE 13.8 mph - N/A   Clear
12:53 PM 79.0 °F 50.0 °F 36% 30.01 in 10.0 mi NNE 9.2 mph - N/A   Clear
1:53 PM 80.1 °F 48.0 °F 32% 29.97 in 10.0 mi North 11.5 mph 20.7 mph N/A   Clear
2:53 PM 80.1 °F 46.0 °F 30% 29.96 in 10.0 mi North 15.0 mph 23.0 mph N/A   Clear
3:53 PM 79.0 °F 43.0 °F 28% 29.94 in 10.0 mi North 13.8 mph 21.9 mph N/A   Clear
4:53 PM 77.0 °F 41.0 °F 28% 29.95 in 10.0 mi North 13.8 mph 20.7 mph N/A   Clear
5:53 PM 75.9 °F 46.0 °F 35% 29.95 in 10.0 mi North 13.8 mph - N/A   Clear
6:53 PM 73.9 °F 48.0 °F 40% 29.97 in 10.0 mi NNW 8.1 mph - N/A   Clear
7:53 PM 72.0 °F 48.9 °F 44% 29.98 in 10.0 mi North 6.9 mph - N/A   Clear
8:53 PM 71.1 °F 50.0 °F 47% 29.99 in 10.0 mi North 6.9 mph - N/A   Clear
9:53 PM 70.0 °F 51.1 °F 51% 30.01 in 10.0 mi North 5.8 mph - N/A   Clear
10:53 PM 70.0 °F 53.1 °F 55% 30.04 in 10.0 mi North 5.8 mph - N/A   Clear
11:53 PM 70.0 °F 54.0 °F 57% 30.04 in 10.0 mi North 6.9 mph - N/A   Clear